Location: Riverside Cemetery
(38.3047°N, 99.7773°W)
Time: 11:01:25
(UTC+00:00)

Cosmos 1934 Rocket - Pass Details

Date: 19 September 2020
Orbit: 937 x 1000 km, 83.0° (Epoch: 25 October)

Event Time Altitude Azimuth Distance (km) Brightness Sun altitude
Rises 10:01:38 0° 353° (N) 3,606 7.2 -27.9°
Reaches altitude 10° 10:04:07 10° 355° (N) 2,657 6.5 -27.4°
Maximum altitude 10:10:11 84° 82° (E) 950 3.9 -26.4°
Drops below altitude 10° 10:16:16 10° 172° (S) 2,657 6.1 -25.3°
Enters shadow 10:17:10 - 173° (S) 3,002 6.4 -25.1°
